Location: Panzano
(42.2095°N, 0.1670°W)
Time: 02:29:58
(UTC+00:00)

Daily predictions for brighter satellites

Satellite Brightness Start Highest point End
(mag) Time Altitude Azimuth Time Altitude Azimuth Time Altitude Azimuth
ATLAS 2AS CENTAUR R/B 4.4 02:50:49 28° ENE 02:50:49 28° ENE 02:54:45 10° ESE
Cosmos 2360 Rocket 4.4 03:21:28 20° NE 03:21:34 20° NE 03:25:36 10° E
SL-16 R/B 4.0 03:34:47 25° ESE 03:34:47 25° ESE 03:37:12 10° SE
Cosmos 2322 Rocket 3.7 03:38:34 31° ESE 03:38:34 31° ESE 03:41:50 10° SE
NOSS 3-4 (A) 4.1 03:58:45 56° N 03:59:57 64° NE 04:07:36 10° SE
NOSS 3-4 (C) 4.1 03:58:50 55° N 04:00:03 63° NE 04:07:41 10° SE
CZ-3B R/B 3.9 04:14:35 24° SSW 04:15:40 25° S 04:20:45 10° SE
Cosmos 1802 Rocket 4.4 04:11:14 10° S 04:17:34 64° E 04:23:52 10° NNE
Cosmos 2173 Rocket 4.0 04:11:30 10° S 04:17:42 78° E 04:23:52 10° N
Cosmos 2333 Rocket 4.3 04:21:36 10° N 04:26:07 23° NE 04:30:37 10° ESE
Cosmos 1328 Rocket 4.4 04:29:56 44° SE 04:29:56 44° SE 04:33:04 10° SSE
Lacrosse 5 4.0 04:33:48 15° N 04:33:48 15° N 04:36:00 10° NNE
Cosmos 1048 Rocket 4.5 04:31:52 34° N 04:34:06 59° ENE 04:39:21 10° SSE
Cosmos 1515 Rocket 4.5 04:35:09 25° NNE 04:37:21 46° ENE 04:41:32 10° SSE
ATLAS 2AS CENTAUR R/B 2.8 04:38:20 54° WNW 04:39:42 63° WSW 04:46:29 10° SSE
Lacrosse 5 rocket 2.8 04:40:14 26° NE 04:40:14 26° NE 04:42:57 10° E
Cosmos 2061 Rocket 3.9 04:36:22 10° S 04:42:35 86° E 04:48:49 10° N
Meteor PRIRODA 4.5 04:39:10 10° NNE 04:42:44 48° E 04:46:15 10° S
Okean O Rocket 4.3 04:40:33 10° NE 04:43:47 20° E 04:47:00 10° SE
Cosmos 1484 Rocket 4.0 04:41:57 10° NNE 04:45:48 43° E 04:49:37 10° S
Cosmos 1933 4.2 04:44:40 25° NNE 04:46:39 48° E 04:50:31 10° SSE
Cosmos 2298 Rocket 4.4 04:48:00 46° NNW 04:48:00 46° NNW 04:52:06 10° NNE
Delta 2 Rocket 4.5 04:48:09 34° S 04:48:09 34° S 04:52:15 10° ESE
Cosmos 1459 Rocket 4.0 04:47:31 10° SSW 04:53:37 57° W 04:59:51 10° N
Cosmos 468 4.4 04:54:05 41° NNW 04:55:59 79° WSW 05:01:15 10° SSE
CZ-2C R/B 3.2 04:53:57 10° N 04:56:50 33° NNW 04:56:50 33° NNW
SL-4 R/B 3.0 05:01:32 40° SW 05:01:32 40° SW 05:05:58 10° SSE
Cosmos 972 Rocket 4.4 04:57:02 10° S 05:02:07 68° ESE 05:07:48 10° NNE
Cosmos 1500 Rocket 3.9 04:58:13 10° S 05:02:37 66° E 05:07:02 10° NNE
Cosmos 494 Rocket 4.5 04:59:45 12° NNW 05:04:30 59° ENE 05:09:37 10° SSE
Cosmos 2360 Rocket 2.1 05:03:18 30° NW 05:06:09 72° WSW 05:11:47 10° SSE
Cosmos 2237 4.1 05:03:59 28° NNW 05:07:06 75° WSW 05:12:46 10° SSE
COSMOS 2455 4.0 05:09:48 24° SW 05:09:48 24° SW 05:13:20 10° SSW
ATLAS CENTAUR R/B 3.2 05:11:53 21° NNW 05:11:53 21° NNW 05:14:27 10° N
Cosmos 2016 Rocket 4.0 05:04:55 10° SSW 05:11:07 61° W 05:17:25 10° N
Meteor 1-26 Rocket 4.5 05:07:02 10° N 05:12:39 69° ENE 05:18:07 10° SSE
Cosmos 1725 Rocket 3.9 05:06:55 10° SSW 05:13:10 74° W 05:19:31 10° N
Cosmos 2237 Rocket 4.4 05:09:09 10° N 05:13:19 20° NE 05:17:26 10° E
SL-16 R/B 3.4 05:16:43 23° WSW 05:16:43 23° WSW 05:20:02 10° SSW
MOS 1-B 4.4 05:10:28 10° NNE 05:16:18 81° ESE 05:22:04 10° SSW
Cosmos 1833 4.2 05:12:12 11° SW 05:17:25 58° WNW 05:22:59 10° NNE
STARLINK-46 2.6 05:17:40 81° S 05:17:40 81° S 05:20:33 10° SE
Cosmos 1400 Rocket 2.9 05:14:05 12° N 05:17:50 78° E 05:21:47 10° SSE
COSMOS 2428 3.5 05:12:51 10° NNW 05:18:26 50° ENE 05:23:58 10° SE
Cosmos 2322 Rocket 3.1 05:20:28 27° WSW 05:20:28 27° WSW 05:24:53 10° SSW
USA 116 4.0 05:20:19 10° SSE 05:23:39 60° ENE 05:27:26 10° N
Cosmos 1269 Rocket 4.1 05:20:13 10° NNW 05:25:33 77° ENE 05:30:50 10° SSE
Gbstr 26 Del rocket 4.4 05:25:38 18° NNW 05:26:32 20° N 05:29:21 10° NE
COSMO-SKYMED 1 2.5 05:24:36 10° S 05:28:55 68° W 05:33:15 10° NNW
FENGYUN 3A 3.8 05:25:15 10° NNE 05:30:41 77° ESE 05:36:04 10° S
Cosmos 1125 Rocket 3.7 05:26:11 10° SW 05:31:14 46° WNW 05:36:18 10° N
ALOS 2.2 05:30:33 10° NNE 05:35:15 89° NW 05:39:56 10° SSW
BREEZE-M DEB (TANK) 3.5 05:29:43 19° WNW 05:36:39 59° SW 05:40:06 10° SE
STARLINK 1040 4.2 05:36:32 10° SSW 05:39:01 34° SE 05:41:32 10° ENE
PSLV R/B 4.3 05:38:17 10° N 05:41:57 37° WNW 05:45:40 10° SW
Cosmos 1606 3.2 05:42:51 17° NNW 05:45:23 36° W 05:48:55 10° SSW
Cosmos 1151 Rocket 4.3 05:45:53 20° W 05:45:53 20° W 05:48:44 10° SW
Tsikada Rocket 4.2 05:41:47 10° NNW 05:47:50 48° W 05:53:47 10° SSW
Helios 1A Rocket 2.8 05:45:53 10° N 05:49:58 78° WNW 05:54:00 10° SSW
Abrixas rocket 3.5 05:50:22 19° NW 05:51:33 24° N 05:54:05 10° ENE
Cosmos 2333 4.3 05:45:54 10° NNW 05:51:37 62° WSW 05:57:17 10° S
Cosmos 2219 Rocket 2.2 05:47:54 10° NNW 05:53:36 87° WSW 05:59:17 10° SSE
BREEZE-M DEB (TANK) 4.4 05:40:14 10° SW 05:54:02 65° SSE 05:57:54 10° ENE
Exosat Rocket 4.2 05:50:32 10° NNW 05:56:24 84° WSW 06:04:40 10° SSE
Cosmos 2322 4.0 05:52:39 10° NW 05:58:03 46° WSW 06:03:24 10° S
Cosmos 1238 Rocket 4.1 05:52:00 10° SSW 05:58:06 47° W 06:03:30 10° N
NOAA 6 3.9 05:54:20 10° N 05:59:27 73° WNW 06:04:32 10° SSW
CZ-4B R/B 3.1 05:54:37 10° N 06:00:04 75° WNW 06:05:36 10° SSW
Cosmos 2219 4.0 05:55:33 10° S 06:01:03 56° ESE 06:06:34 10° NNE
Meteor 2-3 Rocket 4.1 05:57:31 10° SW 06:02:58 43° WNW 06:08:29 10° N
Cosmos 1633 2.6 06:00:21 10° S 06:03:57 80° E 06:07:36 10° N
STARLINK-60 3.6 06:01:35 14° NW 06:04:21 53° NNE 06:07:39 10° ESE
Cosmos 2297 Rocket 3.7 06:03:07 10° S 06:08:21 41° ESE 06:13:37 10° NE
Cosmos 2227 Rocket 3.8 06:04:25 10° S 06:09:38 39° ESE 06:14:53 10° NE
Cosmos 2333 Rocket 2.3 06:05:08 10° NNW 06:10:50 62° WSW 06:16:29 10° S
SJ-7 4.4 06:07:49 10° N 06:11:57 68° WNW 06:15:58 10° SSW
FALCON 9 DEB 2.1 06:10:29 10° SW 06:12:52 83° NW 06:15:17 10° NE
CZ-3B R/B 3.9 06:12:05 10° SW 06:15:10 14° SSW 06:17:36 10° S
CZ-4 R/B 4.5 06:13:21 10° NE 06:15:38 15° E 06:17:54 10° SE
Cosmos 2233 Rocket 4.5 06:10:05 10° SW 06:15:53 38° WNW 06:21:43 10° N
Cosmos 1707 Rocket 3.6 06:11:36 10° N 06:16:05 79° W 06:20:32 10° S
RESURS DK-1 2.4 06:12:52 10° NNW 06:17:02 89° ENE 06:21:10 10° SSE
Cosmos 1805 Rocket 3.9 06:13:18 10° SSW 06:17:24 42° WNW 06:21:32 10° N
Lacrosse 5 3.8 06:14:13 10° NNW 06:17:42 18° NNE 06:21:10 10° ENE
Lacrosse 5 rocket 1.7 06:15:54 11° WNW 06:19:03 36° SW 06:22:22 10° SSE
Starlink Launch 2 leader 2.2 06:17:03 10° WSW 06:19:29 66° NW 06:21:57 10° NE
STARLINK 1044 2.5 06:16:57 10° WSW 06:19:45 77° NW 06:22:34 10° NE
Cosmos 1484 Rocket 4.4 06:17:26 10° NNW 06:19:51 16° WNW 06:22:16 10° WSW
Okean O Rocket 2.1 06:16:14 10° N 06:20:15 37° WNW 06:24:14 10° SW
ADEOS Rocket 4.0 06:14:26 10° SSE 06:22:03 67° ENE 06:29:10 10° N
FALCON 9 DEB 2.2 06:19:56 10° WSW 06:22:19 62° NW 06:24:43 10° NE
Cosmos 2228 Rocket 4.4 06:19:14 10° NW 06:22:36 20° W 06:25:58 10° SW
Starlink Launch 2 trailer 2.2 06:20:45 10° WSW 06:23:10 59° NW 06:25:37 10° NE
Cosmos 1315 Rocket 3.2 06:20:43 10° NNW 06:24:36 45° W 06:28:30 10° SSW
FALCON 9 DEB 2.3 06:23:00 10° WSW 06:25:24 57° NW 06:27:49 10° NE
H-2A R/B 2.7 06:22:12 10° NNE 06:25:56 85° ESE 06:29:37 10° SSW
Timation 2 Rocket 4.4 06:24:13 10° WSW 06:29:46 37° NW 06:35:17 10° NNE
